Location: Banksville Park
(38.5557°N, 75.1182°W)
Time: 01:30:34
(UTC+00:00)

Cosmos 1689 Rocket - Pass Details

Date: 19 September 2020
Orbit: 362 x 378 km, 97.5° (Epoch: 30 October)

Event Time Altitude Azimuth Distance (km) Brightness Sun altitude
Rises 09:59:54 0° 163° (SSE) 2,225 6.0 -9.8°
Reaches altitude 10° 10:01:50 10° 161° (SSE) 1,383 5.0 -9.4°
Maximum altitude 10:04:46 72° 77° (ENE) 402 2.3 -8.8°
Drops below altitude 10° 10:07:45 10° 352° (N) 1,406 4.9 -8.3°
Sets 10:09:51 0° 351° (N) 2,321 6.0 -7.9°
